Location: Bavegemberg
(50.9500°N, 3.8833°E)
Time: 14:42:19
(UTC+00:00)

Resurs 1-4 Rocket - Pass Details

Date: 23 May 2024
Orbit: 798 x 813 km, 98.7° (Epoch: 16 June)

Event Time Altitude Azimuth Distance (km) Brightness Sun altitude
Rises 02:04:47 0° 14° (NNE) 3,320 6.8 -11.8°
Reaches altitude 10° 02:07:07 10° 13° (NNE) 2,385 5.8 -11.5°
Maximum altitude 02:12:23 79° 288° (WNW) 820 2.1 -11.1°
Enters shadow 02:17:04 13° 203° (SSW) 2,156 3.7 -10.6°
